EGSSLFBZ

Guest
Details From EGSS - London Stansted
To LFBZ - Biarritz Bayonne Anglet
Flight Number -
Tags Routegen
Created
Modified
Stats Distance 535 nm / 990 km
Max Altitude 0 ft / 0 m
Waypoints 6
Social Downloads 5
Likes 0
Share

Download

Looking for another format? Having issues loading an existing format? Contact us
Advertisement - Login to hide

Notes

None

Route

EGSS +51.77_+000.06 ARGED BD013 +43.47_+000.91 LFBZ

ID Type Via Altitude (ft/m) Position (lat/lon) Dist (leg/tot) Name
O EGSS APT - 0 / 0 51.87508 / 0.21993 - / 0 nm
+51.77_+000.06 DME - 0 / 0 51.76876 / 0.06105 8 / 8 nm
ARGED FIX - 0 / 0 48.92972 / -0.25000 170 / 179 nm
BD013 FIX - 0 / 0 45.05529 / -0.65263 233 / 412 nm
+43.47_+000.91 DME - 0 / 0 43.47333 / -0.91116 95 / 508 nm
O LFBZ APT - 0 / 0 43.46854 / -1.50942 26 / 534 nm

Altitude Profile

Advertisement - Login to hide

Weather


0- 5 10 15 20 25 30 35+ Temperature / °C

Clouds and Precipitation
Forecast for 2020-08-11 00:00 UTC. Updated 6 hours ago

Ground ~20,000 ft ~40,000 ft Winds

EGSS

Details ICAO EGSS (STN)
Name London Stansted
Region United Kingdom
Timezone Europe/London (UTC+1.0)
Stats Elevation 348 ft / 106 m (AMSL)
Location 51.885100° 0.234986°
Runways 1
Magnetic Variation 0.029° E

METAR

EGSS 110320Z AUTO 03002KT 9000 NCD 19/17 Q1015

Decode

TAF

TAF EGSS 102259Z 1100/1206 10006KT 9999 FEW035 PROB30 TEMPO 1100/1102 8000 PROB30 TEMPO 1102/1121 6000 SHRA PROB30 TEMPO 1114/1119 VRB20G30KT 2000 +TSGR

Decode

Departure Runways

ID Width Length Bearing (true/mag) Surface Threshold Overrun Markings Lighting
04 151 ft / 46 m 9,985 ft / 3,044 m 42.78° / 42.75° ASPHALT 974 ft / 297 m 0 ft / 0 m UK-PREC-APP CENTERLINE EDGE THRESHOLD CALVERT-ILS TDZ REIL-OMNI
22 151 ft / 46 m 9,985 ft / 3,044 m 222.81° / 222.78° ASPHALT 0 ft / 0 m 0 ft / 0 m UK-PREC-APP CENTERLINE EDGE THRESHOLD CALVERT-ILS TDZ REIL-OMNI

LFBZ

Details ICAO LFBZ (BIQ)
Name Biarritz-Anglet-Bayonne
Region France
Timezone Europe/Paris (UTC+2.0)
Stats Elevation 245 ft / 75 m (AMSL)
Location 43.468400° -1.523330°
Runways 1
Magnetic Variation 0.103° E

METAR

LFBZ 110300Z AUTO 14001KT 9999 OVC016 22/21 Q1013 TEMPO BKN009

Decode

TAF

TAF LFBZ 102300Z 1100/1124 VRB04KT CAVOK PROB40 1100/1106 BKN009 TEMPO 1106/1124 SCT080CB BKN100TCU PROB30 1116/1124 VRB15G30KT -TSRA BKN080CB

Decode

Destination Runways

ID Width Length Bearing (true/mag) Surface Threshold Overrun Markings Lighting
09 148 ft / 45 m 7,389 ft / 2,252 m 89.16° / 89.06° ASPHALT 686 ft / 209 m 0 ft / 0 m APP CENTERLINE EDGE THRESHOLD
27 148 ft / 45 m 7,389 ft / 2,252 m 269.18° / 269.08° ASPHALT 0 ft / 0 m 0 ft / 0 m PREC-APP CENTERLINE EDGE THRESHOLD

Approach Navaids

Runway Type Ident Frequency Range Bearing (true/mag) Slope Elevation
27 DME BZ 111.35 MHz 18 nm / 33 km - - 223 ft / 68 m (AMSL)
27 LOC-ILS BZ 111.35 MHz 18 nm / 33 km 269.17° / 269.07 ° - 245 ft / 75 m (AMSL)
27 GS BZ 111.35 MHz 10 nm / 19 km 269.17° / 269.07 ° 3.00° 245 ft / 75 m (AMSL)

Popular Alternatives